Theta_e
321 321 321 322 322 321 320 320 319 319 318 318 318 318 318 318 319 319 319 319 319 319 320 323 325 327 326 323 322 329 347 345 334 334 331 328 328 328 321 324 325 323 324 326 328 330 331
321 321 321 321 320 320 319 319 319 319 318 318 318 317 317 318 318 318 318 318 318 318 320 323 325 326 327 315 328 329 328 329 332 334 331 330 327 329 325 323 323 323 323 323 326 327 329
321 321 320 320 320 319 319 319 319 319 318 317 317 317 317 317 317 318 317 317 317 318 321 323 326 329 319 318 326 329 329 329 333 331 329 330 330 327 327 323 325 323 321 324 324 325 326
322 321 321 321 320 320 319 319 318 318 318 318 317 317 317 317 317 316 316 316 317 319 321 324 327 327 315 323 327 324 328 328 331 331 331 332 332 329 327 327 322 320 320 316 322 323 326
322 321 321 321 320 319 319 318 318 318 318 318 317 318 317 316 316 315 315 315 317 321 324 326 326 322 313 322 317 324 329 326 330 330 332 330 330 326 325 320 316 317 311 314 317 323 322
321 321 321 320 320 319 319 318 319 318 319 318 318 316 317 315 315 315 315 315 321 322 324 326 323 316 317 314 320 324 329 328 325 328 327 327 326 322 321 318 309 311 313 314 314 319 321
320 320 320 319 319 319 318 318 319 319 319 318 317 317 316 314 314 314 316 322 319 318 320 315 314 315 316 322 324 323 328 325 324 325 321 325 320 315 317 319 318 315 314 312 315 318 316
319 319 318 318 318 318 318 318 318 318 318 318 317 317 316 314 314 313 316 320 320 322 315 317 315 315 319 322 315 321 327 319 320 318 323 320 315 320 320 317 316 315 313 313 316 317 317
318 318 317 317 317 317 317 317 318 318 317 317 317 316 315 314 313 314 320 320 327 326 316 314 316 316 318 320 316 319 322 320 318 317 319 317 318 321 317 316 315 316 313 312 312 316 318
318 317 316 316 317 317 317 317 317 317 317 316 316 316 314 313 309 324 319 325 326 327 312 311 313 317 320 319 314 322 323 319 317 315 317 317 321 316 316 314 317 311 316 313 312 312 308
317 317 316 315 315 317 316 316 317 317 316 316 316 315 313 308 321 319 323 328 328 325 301 313 315 324 320 316 316 315 321 319 314 314 314 311 312 313 314 316 318 313 315 313 313 312 312
316 316 316 316 315 315 316 316 316 316 316 315 315 314 313 314 321 327 329 329 325 309 301 310 315 313 314 317 314 316 318 322 320 314 314 315 318 316 317 319 317 317 314 314 314 312 306
316 316 316 316 316 316 316 316 316 315 315 314 313 310 312 323 323 329 329 324 308 304 314 308 309 313 313 312 314 314 313 313 311 308 308 314 314 318 320 314 317 315 312 305 304 304 304
316 316 316 315 315 315 316 316 316 315 314 312 310 309 314 323 329 328 326 315 304 309 311 314 312 312 310 313 314 313 312 310 314 313 311 308 306 315 318 315 313 314 311 306 301 304 303
315 315 315 314 315 314 316 316 315 314 314 311 309 320 326 326 326 328 320 307 309 312 315 311 313 309 309 313 314 314 313 312 314 315 310 310 309 318 318 319 317 313 309 315 309 311 306
314 314 315 314 313 313 315 316 315 314 313 311 324 324 324 327 329 324 315 306 314 318 319 316 309 312 309 311 311 312 313 316 314 316 318 315 309 316 317 318 318 315 318 308 310 303 303
314 314 314 314 314 314 315 315 315 313 312 311 322 320 324 329 327 319 309 312 315 318 319 316 312 311 312 311 313 312 313 316 318 317 319 318 314 313 316 313 312 312 311 313 313 310 306
314 315 314 314 313 314 314 314 314 312 310 310 328 316 324 328 315 315 312 315 305 317 320 319 319 315 314 314 313 314 313 316 320 320 315 319 315 311 311 317 318 317 315 315 309 307 311
314 315 314 313 313 314 314 314 313 311 310 321 324 318 325 326 311 312 317 315 315 316 319 317 316 319 319 315 312 315 317 319 320 319 318 320 314 305 311 314 316 314 316 315 315 313 309
314 314 314 314 313 314 314 313 312 311 311 319 324 313 318 321 321 316 315 314 313 318 318 320 319 321 318 316 318 314 316 317 319 320 324 321 316 312 303 306 314 311 312 314 313 308 309
313 313 313 314 315 313 314 313 312 311 311 318 326 318 318 312 314 316 317 315 313 315 319 322 320 320 318 315 316 315 318 317 317 313 318 319 313 315 314 314 316 313 312 313 312 312 308
313 313 313 313 314 315 314 314 313 311 310 325 322 321 321 319 317 315 309 314 315 317 318 318 318 319 320 317 316 315 318 319 317 320 320 321 314 314 311 315 314 311 313 313 312 311 311
312 312 313 313 313 314 315 314 313 311 313 327 326 330 324 313 316 314 315 315 316 319 319 321 321 319 318 319 322 323 322 321 321 318 318 317 315 313 308 314 312 307 311 311 311 312 312
312 312 312 312 313 313 314 315 314 312 312 323 325 324 322 316 315 314 315 316 316 319 318 319 322 321 320 323 323 322 321 320 319 318 319 316 315 314 308 311 302 312 317 314 310 312 316
311 311 312 312 312 313 314 314 314 313 312 324 327 323 324 319 318 316 316 316 319 319 319 318 318 322 324 322 316 313 313 313 315 316 316 318 314 309 306 306 310 311 314 312 310 313 318
311 311 312 312 312 312 313 313 314 313 312 320 328 327 323 320 318 320 318 319 317 318 318 317 321 324 322 319 315 309 306 310 310 314 319 317 316 310 308 304 302 311 316 319 316 307 320
310 311 311 311 312 312 312 313 313 313 312 315 325 327 323 319 325 322 319 320 322 321 319 320 320 319 322 316 311 309 308 313 307 307 309 311 312 307 307 305 308 317 317 318 305 312 320
309 310 311 311 311 312 312 312 312 313 313 314 321 327 321 319 322 322 322 321 322 322 318 322 318 319 319 314 312 311 310 311 311 312 310 309 308 307 309 305 303 319 317 310 320 323 322
309 310 310 310 311 311 312 312 311 312 312 312 319 323 324 319 320 324 323 326 325 324 321 324 321 321 322 316 317 315 312 313 313 307 317 308 312 310 313 313 320 322 322 323 323 324 323
Wind_Speed
13 14 14 14 13 13 13 13 14 13 13 12 12 12 12 13 13 13 13 13 13 14 15 16 17 17 12 12 9 11 5 9 10 11 11 8 11 7 3 6 8 10 9 5 5 5 7
14 14 14 14 14 14 14 14 14 14 14 13 12 13 13 13 13 13 13 13 13 14 14 15 16 20 11 16 6 3 3 6 9 9 6 7 6 10 3 3 5 5 4 3 3 8 9
14 14 15 14 14 14 14 14 14 14 14 14 13 13 14 14 14 13 13 13 14 14 14 14 13 8 12 14 4 3 7 8 4 7 10 2 8 13 3 10 3 6 10 9 5 4 11
14 14 14 14 15 13 14 14 14 14 15 14 14 14 14 14 14 13 13 14 15 15 15 14 11 11 11 3 7 8 10 11 9 8 8 6 9 14 13 6 8 8 9 10 10 3 7
15 15 15 15 16 15 14 14 13 14 13 13 14 13 14 14 13 13 12 15 17 15 12 11 10 10 13 5 12 14 14 12 11 8 6 6 13 14 7 15 13 8 7 8 11 2 2
16 16 16 16 16 16 14 15 13 14 13 14 14 15 12 13 12 12 14 15 7 7 9 9 9 8 10 13 14 11 13 11 9 10 9 11 15 14 12 12 5 6 6 6 5 10 5
17 16 16 16 16 15 16 14 14 14 13 14 14 13 11 12 11 11 15 6 8 9 14 10 5 10 7 5 3 12 13 12 10 10 15 16 14 14 9 20 2 3 7 0 5 5 4
17 17 18 17 16 15 15 15 14 14 14 15 14 12 10 12 9 9 9 9 9 8 8 18 9 9 5 7 13 16 14 13 13 15 19 14 14 11 3 4 5 6 6 10 9 3 7
17 17 17 17 18 17 17 16 15 15 14 14 15 13 10 10 7 6 12 10 6 7 10 14 13 12 12 12 14 17 15 15 12 17 20 16 16 10 5 8 10 12 12 4 7 9 11
16 17 17 17 17 16 16 16 16 16 16 15 14 12 8 6 5 6 12 12 7 5 9 14 13 10 7 12 10 16 17 13 11 15 11 16 13 4 7 12 14 10 3 1 4 11 14
15 16 18 18 18 16 18 17 16 16 16 16 14 10 6 8 12 8 9 4 6 6 8 19 16 12 14 16 17 11 16 12 13 13 7 14 16 7 15 15 14 3 3 1 8 12 13
16 17 17 17 18 18 17 17 16 17 17 17 14 9 6 7 8 9 4 4 7 10 5 11 12 15 16 14 14 15 12 12 6 10 13 9 8 14 17 11 3 6 8 10 12 13 14
17 18 18 17 17 17 17 18 18 18 18 17 13 8 9 9 1 2 5 8 9 13 18 15 20 20 19 13 12 17 17 15 11 12 12 10 11 10 10 6 10 10 15 12 13 13 11
18 16 16 17 17 17 18 18 19 19 20 17 10 5 14 10 4 7 7 11 12 13 14 18 17 20 16 14 15 17 15 15 17 15 10 13 17 18 13 15 12 14 16 14 6 5 11
18 17 17 18 17 19 18 18 19 19 19 16 4 7 8 8 11 6 9 13 9 5 8 19 19 19 16 16 8 14 14 16 16 13 17 12 11 21 12 12 14 14 7 19 16 13 10
18 18 17 18 19 20 19 19 20 20 19 16 7 7 7 8 9 8 10 18 3 9 9 15 15 16 16 17 10 12 14 14 8 12 17 2 7 12 10 10 10 18 11 14 10 1 12
17 18 18 18 18 19 19 20 20 21 20 12 8 7 8 9 7 9 11 11 1 4 8 10 15 15 12 15 15 14 12 9 7 11 8 13 13 6 10 13 16 10 11 12 1 7 10
17 17 18 18 19 20 21 21 20 21 23 4 10 4 8 9 9 10 15 3 3 11 12 8 10 13 12 16 15 13 15 9 3 2 10 14 5 11 17 8 3 9 10 13 8 7 13
17 17 17 19 20 21 22 22 22 21 17 8 7 7 8 9 9 11 11 6 7 7 12 11 9 10 9 12 8 7 13 7 5 8 5 6 4 6 21 14 6 10 5 7 12 14 11
16 17 18 19 21 22 22 22 22 22 20 6 8 6 7 9 14 14 13 12 9 6 4 7 6 4 8 13 7 6 12 5 4 2 8 6 17 7 10 9 20 6 7 4 11 10 14
16 17 18 19 19 21 21 22 23 24 22 6 7 1 8 11 13 11 1 1 10 9 7 11 7 13 13 9 12 9 13 10 8 4 5 9 15 9 24 32 28 11 9 10 10 11 14
15 16 17 18 19 19 20 22 24 29 28 7 7 6 4 6 8 12 7 8 12 5 5 14 11 15 12 9 4 13 12 11 9 10 10 9 9 4 14 8 10 12 12 14 16 12 14
13 15 16 18 19 20 20 21 22 26 25 6 8 6 7 6 10 11 12 8 8 1 3 8 8 9 7 8 11 14 10 7 5 4 9 10 9 4 12 13 7 12 13 10 5 9 10
12 14 15 17 18 19 19 20 20 20 19 8 6 7 8 6 7 8 2 3 7 6 3 4 10 5 6 3 1 2 2 2 3 4 9 6 7 10 12 13 17 2 6 4 6 8 4
10 13 15 16 17 19 19 20 19 19 19 7 6 6 7 11 4 4 8 7 5 4 5 4 4 6 6 6 7 6 8 7 10 5 9 9 7 11 11 12 14 11 15 5 5 6 5
9 11 13 15 16 17 19 20 19 18 19 10 4 6 7 8 6 8 6 6 6 9 7 5 4 2 5 6 8 5 8 12 1 10 8 9 11 9 13 16 15 4 9 8 4 11 11
8 10 12 14 16 17 18 19 20 19 18 10 5 7 6 9 6 7 4 7 6 4 5 8 6 6 6 7 9 9 10 6 6 11 11 7 6 11 11 11 13 10 9 6 8 6 5
7 8 10 12 14 16 17 18 18 19 18 11 6 5 7 7 9 6 8 8 4 5 5 10 6 6 4 7 8 10 6 7 5 10 11 7 10 10 8 10 10 8 5 6 8 3 3
7 8 9 11 13 14 16 17 17 17 17 15 6 5 5 6 8 9 9 6 6 8 9 1 7 5 7 5 3 5 8 5 9 13 6 7 7 8 8 7 4 4 6 6 5 7 4
Wind_Direction
7 4 359 357 355 356 354 352 350 348 345 338 332 328 325 322 319 316 317 315 314 314 314 314 315 318 310 236 248 127 205 186 244 251 265 316 299 284 295 102 126 91 102 149 86 142 84
9 4 1 357 356 354 352 350 351 348 344 339 334 327 323 320 317 315 313 312 310 308 308 309 312 313 246 261 54 111 288 253 254 257 264 300 350 328 347 72 77 90 91 103 152 120 117
8 7 4 1 357 351 349 350 349 348 346 341 335 328 322 318 316 315 312 308 304 301 299 300 305 296 265 254 28 249 240 262 274 280 288 2 325 278 293 149 152 152 187 164 93 136 132
5 4 360 356 357 352 349 348 349 348 345 338 333 328 323 317 314 312 308 303 296 291 290 283 286 268 265 232 310 246 238 242 236 253 266 313 297 283 278 95 196 232 233 148 106 179 119
4 2 1 358 357 355 350 348 346 345 339 335 333 325 323 318 313 308 301 296 288 278 262 270 250 230 254 115 222 223 220 231 206 221 234 288 267 277 184 224 188 204 247 85 130 203 124
1 360 358 356 357 355 349 348 342 341 334 332 329 330 318 317 312 306 301 287 307 249 222 221 267 254 237 221 195 198 205 248 230 210 218 233 241 231 231 228 34 300 118 167 114 136 223
358 357 356 354 351 349 352 345 340 334 333 331 329 322 316 316 310 310 304 199 204 193 214 234 191 242 132 135 140 210 190 208 221 230 224 200 238 234 226 110 244 356 296 20 135 103 254
357 355 353 351 350 347 346 343 337 331 331 329 326 321 315 312 304 310 281 252 24 350 238 218 244 258 261 261 182 197 188 209 206 222 229 237 238 273 73 23 271 268 231 220 144 160 263
356 353 350 348 348 347 346 342 336 330 327 326 323 319 309 304 308 254 236 247 335 313 255 165 206 215 196 201 194 181 197 213 209 227 228 250 216 206 198 214 244 228 254 31 320 183 219
355 353 350 347 345 344 341 337 334 330 327 323 322 324 319 317 274 203 223 221 241 292 261 143 186 205 184 221 211 184 197 214 225 237 220 231 250 224 207 241 240 283 67 332 251 257 233
352 351 352 348 345 342 343 336 333 326 325 319 318 313 300 255 322 224 53 217 255 238 244 151 151 125 169 213 136 185 198 203 237 221 228 218 236 191 233 228 234 77 336 224 275 273 269
352 351 348 348 344 341 338 333 329 326 321 318 312 292 282 202 228 291 264 257 236 232 183 148 143 178 177 216 188 151 177 230 275 206 224 280 209 212 214 211 239 4 258 221 229 245 257
351 350 348 343 341 338 335 334 333 327 322 319 305 262 228 318 324 149 246 226 219 248 139 151 166 173 192 173 158 172 186 200 193 202 195 211 192 226 272 196 186 232 250 243 220 213 237
350 347 346 345 342 342 336 334 334 330 329 328 307 219 200 260 303 267 225 229 249 230 190 153 177 176 199 171 173 184 190 203 230 233 204 206 181 209 183 248 251 210 237 261 263 282 330
351 350 347 346 344 344 337 339 335 333 334 336 302 200 214 195 219 256 233 230 214 182 144 171 168 182 200 176 184 200 208 218 190 224 261 183 238 179 207 195 238 256 257 276 301 151 215
351 350 349 349 348 347 339 339 338 335 336 336 268 203 155 144 175 226 240 249 331 341 319 179 184 193 187 183 210 203 188 204 195 196 262 257 219 171 173 232 243 267 322 223 243 46 296
350 351 349 349 348 347 342 342 339 337 333 330 245 219 111 167 200 226 232 227 255 188 255 242 198 197 189 183 210 211 183 147 184 175 237 266 119 221 172 209 180 193 234 248 167 314 271
350 348 351 350 350 349 347 346 342 341 335 267 270 208 142 174 212 225 230 194 18 242 200 269 296 190 215 177 207 213 161 152 81 208 204 247 47 216 200 122 283 299 330 286 292 214 330
350 350 350 351 351 351 350 348 348 346 349 306 254 108 162 214 229 203 240 208 239 224 195 200 227 247 216 170 213 196 101 87 176 229 331 257 243 58 297 172 179 249 193 279 304 306 296
349 350 351 352 353 352 351 349 346 344 348 271 277 152 154 211 269 283 203 218 202 216 299 267 240 226 197 188 200 196 116 141 173 329 348 310 276 242 124 299 287 230 210 263 300 294 307
348 350 352 352 350 353 351 349 346 345 346 271 248 54 157 187 228 249 225 300 219 170 234 213 215 210 198 186 199 184 137 135 172 145 221 255 276 324 156 180 223 289 305 298 284 299 293
346 351 353 355 355 354 353 352 350 347 339 255 312 335 207 311 194 208 160 209 235 157 244 184 224 226 203 209 195 170 154 181 164 177 232 239 258 262 294 264 221 283 290 291 281 267 278
341 347 350 354 355 355 354 356 358 358 340 340 356 283 275 148 207 212 202 236 211 54 195 319 201 201 107 29 35 32 27 12 101 227 219 270 283 215 269 289 285 273 274 306 329 314 300
336 341 347 352 355 356 356 358 1 2 2 305 16 293 272 245 233 214 78 215 230 201 320 54 316 95 78 253 61 287 285 128 286 276 295 215 274 288 283 289 273 327 65 348 308 299 300
330 336 343 349 353 355 357 359 359 359 356 307 334 328 311 296 20 162 212 215 202 161 213 103 56 28 172 203 243 211 226 205 238 186 286 289 278 282 280 271 277 254 184 226 245 221 163
319 330 338 345 351 354 355 357 357 357 355 313 345 321 291 301 79 3 260 233 207 183 169 122 155 255 248 246 222 255 261 291 208 174 217 277 303 268 274 279 273 342 72 92 65 259 135
305 324 333 340 343 348 352 354 356 356 352 324 308 358 279 286 63 333 335 338 323 306 177 144 159 184 248 243 247 254 262 11 273 277 290 250 228 268 251 248 259 99 123 133 231 67 124
292 315 327 333 339 342 347 351 354 353 353 339 305 13 330 311 313 352 350 336 313 265 297 100 207 211 227 253 271 276 259 264 270 274 282 260 263 261 240 262 252 99 154 254 75 135 88
280 305 321 327 335 338 342 345 350 349 350 337 278 15 332 266 333 321 295 299 304 346 329 225 354 340 16 291 229 301 291 243 259 279 109 247 275 322 343 34 76 25 40 81 82 100 92